User: anonymous   Login
Location: Unspecified
(0.0000°N, 0.0000°E)
Time: 03:26:48
(UTC+00:00)
Language:

N. Korean satellite - Orbit

View from above orbital plane
View from above orbital plane
View from above satellite
View from above satellite

Ground track
Ground track

The orbit data is extracted from the following two-line orbital elements,

1 39026U 12072A   17086.79273959 +.00003341 +00000-0 +13295-3 0  9999
2 39026 097.2287 107.4153 0042782 104.7178 255.8807 15.25085632237520
Epoch (UTC): 27 March 2017 19:01:32
Eccentricity: 0.0042782
inclination: 97.2287°
perigee height: 461 km
apogee height: 520 km
right ascension of ascending node: 107.4153°
argument of perigee: 104.7178°
revolutions per day: 15.25085632
mean anomaly at epoch: 255.8807°
orbit number at epoch: 23752

The dashed part of the orbit path shows where the satellite is in the earth's shadow,  

DLR